Time,TemperatureF,DewpointF,PressureIn,WindDirection,WindDirectionDegrees,WindSpeedMPH,WindSpeedGustMPH,Humidity,HourlyPrecipIn,Conditions,Clouds,dailyrainin,SoftwareType,DateUTC
2017-07-21 00:03:00,74.0,71.2,29.92,South,169,0.0,0.0,91,0.00,,---,0.00,VWS V15.00,2017-07-21 05:03:00,
2017-07-21 00:08:00,73.7,70.9,29.92,South,169,0.0,0.0,91,0.00,,---,0.00,VWS V15.00,2017-07-21 05:08:00,
2017-07-21 00:13:00,73.5,71.0,29.92,South,169,0.0,0.0,92,0.00,,---,0.00,VWS V15.00,2017-07-21 05:13:00,
2017-07-21 00:18:00,73.3,70.8,29.92,South,169,0.0,0.0,92,0.00,,---,0.00,VWS V15.00,2017-07-21 05:18:00,
2017-07-21 00:23:00,73.3,70.8,29.92,South,169,0.0,0.0,92,0.00,,---,0.00,VWS V15.00,2017-07-21 05:23:00,
2017-07-21 00:28:00,73.3,70.8,29.92,South,169,0.0,0.0,92,0.00,,---,0.00,VWS V15.00,2017-07-21 05:28:00,
2017-07-21 00:33:00,73.2,70.7,29.91,South,169,0.0,0.0,92,0.00,,---,0.00,VWS V15.00,2017-07-21 05:33:00,
2017-07-21 00:38:00,73.1,70.6,29.91,South,169,0.0,0.0,92,0.00,,---,0.00,VWS V15.00,2017-07-21 05:38:00,
2017-07-21 00:43:00,73.0,70.9,29.91,South,169,0.0,0.0,93,0.00,,---,0.00,VWS V15.00,2017-07-21 05:43:00,
2017-07-21 00:48:00,72.9,70.8,29.91,South,169,0.0,0.0,93,0.00,,---,0.00,VWS V15.00,2017-07-21 05:48:00,
2017-07-21 00:53:00,72.9,70.8,29.91,South,169,0.0,0.0,93,0.00,,---,0.00,VWS V15.00,2017-07-21 05:53:00,
2017-07-21 00:58:00,72.8,70.7,29.91,South,169,0.0,0.0,93,0.00,,---,0.00,VWS V15.00,2017-07-21 05:58:00,
2017-07-21 01:03:00,72.9,70.8,29.91,SSE,148,0.0,0.0,93,0.00,,---,0.00,VWS V15.00,2017-07-21 06:03:00,
2017-07-21 01:08:00,72.9,70.8,29.91,SSE,149,0.0,0.0,93,0.00,,---,0.00,VWS V15.00,2017-07-21 06:08:00,
2017-07-21 01:13:00,72.8,70.7,29.91,SSE,149,0.0,0.0,93,0.00,,---,0.00,VWS V15.00,2017-07-21 06:13:00,
2017-07-21 01:18:00,72.7,70.6,29.92,SSE,149,0.0,0.0,93,0.00,,---,0.00,VWS V15.00,2017-07-21 06:18:00,
2017-07-21 01:23:00,72.7,70.6,29.91,SSE,148,0.0,0.0,93,0.00,,---,0.00,VWS V15.00,2017-07-21 06:23:00,
2017-07-21 01:28:00,72.6,70.5,29.91,SSE,149,0.0,0.0,93,0.00,,---,0.00,VWS V15.00,2017-07-21 06:28:00,
2017-07-21 01:33:00,72.4,70.3,29.92,SSE,159,0.0,0.0,93,0.00,,---,0.00,VWS V15.00,2017-07-21 06:33:00,
2017-07-21 01:38:00,72.3,70.2,29.92,SSE,159,0.0,0.0,93,0.00,,---,0.00,VWS V15.00,2017-07-21 06:38:00,
2017-07-21 01:43:00,72.2,70.4,29.92,SSE,159,0.0,0.0,94,0.00,,---,0.00,VWS V15.00,2017-07-21 06:43:00,
2017-07-21 01:48:00,72.2,70.4,29.92,SSE,159,0.0,0.0,94,0.00,,---,0.00,VWS V15.00,2017-07-21 06:48:00,
2017-07-21 01:53:00,72.2,70.4,29.91,SSE,159,0.0,0.0,94,0.00,,---,0.00,VWS V15.00,2017-07-21 06:53:00,
2017-07-21 01:58:00,72.2,70.4,29.92,SSE,159,0.0,0.0,94,0.00,,---,0.00,VWS V15.00,2017-07-21 06:58:00,
2017-07-21 02:03:00,72.2,70.4,29.92,SSE,159,0.0,0.0,94,0.00,,---,0.00,VWS V15.00,2017-07-21 07:03:00,
2017-07-21 02:08:00,72.1,70.3,29.92,SSE,159,0.0,0.0,94,0.00,,---,0.00,VWS V15.00,2017-07-21 07:08:00,
2017-07-21 02:13:00,72.0,70.2,29.92,SSE,159,0.0,0.0,94,0.00,,---,0.00,VWS V15.00,2017-07-21 07:13:00,
2017-07-21 02:18:00,72.1,70.3,29.92,SSE,159,0.0,0.0,94,0.00,,---,0.00,VWS V15.00,2017-07-21 07:18:00,
2017-07-21 02:23:00,72.1,70.3,29.93,WNW,286,1.0,1.0,94,0.00,,---,0.00,VWS V15.00,2017-07-21 07:23:00,
2017-07-21 02:28:00,72.3,70.8,29.94,WNW,285,0.0,1.0,95,0.00,,---,0.00,VWS V15.00,2017-07-21 07:28:00,
2017-07-21 02:33:00,72.4,70.9,29.94,WNW,286,0.0,0.0,95,0.00,,---,0.00,VWS V15.00,2017-07-21 07:33:00,
2017-07-21 02:38:00,72.4,70.6,29.95,WNW,282,0.0,0.0,94,0.00,,---,0.00,VWS V15.00,2017-07-21 07:38:00,
2017-07-21 02:43:00,72.7,71.2,29.98,SSW,192,2.0,3.0,95,0.00,,---,0.00,VWS V15.00,2017-07-21 07:43:00,
2017-07-21 02:48:00,73.2,71.4,29.98,West,271,6.0,6.0,94,0.00,,---,0.00,VWS V15.00,2017-07-21 07:48:00,
2017-07-21 02:53:00,73.8,70.4,29.99,West,267,2.0,13.0,89,0.00,,---,0.00,VWS V15.00,2017-07-21 07:53:00,
2017-07-21 02:58:00,74.2,69.8,29.99,WSW,251,4.0,13.0,86,0.00,,---,0.00,VWS V15.00,2017-07-21 07:58:00,
2017-07-21 03:03:00,74.0,69.6,29.98,WSW,257,10.0,13.0,86,0.00,,---,0.00,VWS V15.00,2017-07-21 08:03:00,
2017-07-21 03:08:00,73.4,69.6,29.97,NNW,334,4.0,17.0,88,0.03,,---,0.03,VWS V15.00,2017-07-21 08:08:00,
2017-07-21 03:13:00,73.0,69.6,29.97,NW,306,4.0,17.0,89,0.06,,---,0.06,VWS V15.00,2017-07-21 08:13:00,
2017-07-21 03:18:00,72.4,69.6,29.96,NW,310,2.0,17.0,91,0.11,,---,0.11,VWS V15.00,2017-07-21 08:18:00,
2017-07-21 03:23:00,72.0,69.6,29.95,NW,311,2.0,17.0,92,0.14,,---,0.14,VWS V15.00,2017-07-21 08:23:00,
2017-07-21 03:28:00,71.9,69.8,29.94,NNW,344,4.0,17.0,93,0.14,,---,0.14,VWS V15.00,2017-07-21 08:28:00,
2017-07-21 03:33:00,71.8,69.3,29.94,NW,323,2.0,9.0,92,0.15,,---,0.15,VWS V15.00,2017-07-21 08:33:00,
2017-07-21 03:38:00,71.6,69.2,29.93,NNE,22,0.0,9.0,92,0.15,,---,0.15,VWS V15.00,2017-07-21 08:38:00,
2017-07-21 03:43:00,71.5,69.1,29.93,ENE,68,0.0,9.0,92,0.15,,---,0.15,VWS V15.00,2017-07-21 08:43:00,
2017-07-21 03:48:00,71.3,69.2,29.93,SW,233,0.0,9.0,93,0.15,,---,0.15,VWS V15.00,2017-07-21 08:48:00,
2017-07-21 03:53:00,71.1,69.0,29.92,SE,127,2.0,9.0,93,0.15,,---,0.15,VWS V15.00,2017-07-21 08:53:00,
2017-07-21 03:58:00,70.8,69.0,29.92,SSE,160,0.0,9.0,94,0.15,,---,0.15,VWS V15.00,2017-07-21 08:58:00,
2017-07-21 04:03:00,70.9,69.1,29.92,ENE,77,1.0,3.0,94,0.15,,---,0.15,VWS V15.00,2017-07-21 09:03:00,
2017-07-21 04:08:00,70.9,69.1,29.92,ESE,120,0.0,3.0,94,0.15,,---,0.15,VWS V15.00,2017-07-21 09:08:00,
2017-07-21 04:13:00,70.9,69.1,29.92,ESE,120,0.0,3.0,94,0.15,,---,0.15,VWS V15.00,2017-07-21 09:13:00,
2017-07-21 04:18:00,70.8,69.0,29.92,SE,144,0.0,3.0,94,0.16,,---,0.16,VWS V15.00,2017-07-21 09:18:00,
2017-07-21 04:23:00,70.8,69.0,29.93,SE,143,0.0,3.0,94,0.16,,---,0.16,VWS V15.00,2017-07-21 09:23:00,
2017-07-21 04:28:00,70.7,69.2,29.93,SE,143,0.0,3.0,95,0.16,,---,0.16,VWS V15.00,2017-07-21 09:28:00,
2017-07-21 04:33:00,70.7,69.2,29.93,SSW,198,0.0,0.0,95,0.02,,---,0.16,VWS V15.00,2017-07-21 09:33:00,
2017-07-21 04:38:00,70.8,69.3,29.94,SW,214,0.0,1.0,95,0.02,,---,0.16,VWS V15.00,2017-07-21 09:38:00,
2017-07-21 04:43:00,70.7,69.2,29.94,SW,215,0.0,1.0,95,0.02,,---,0.16,VWS V15.00,2017-07-21 09:43:00,
2017-07-21 04:48:00,70.6,69.1,29.94,SW,214,0.0,1.0,95,0.02,,---,0.16,VWS V15.00,2017-07-21 09:48:00,
2017-07-21 04:53:00,70.6,69.1,29.95,SW,214,0.0,1.0,95,0.02,,---,0.16,VWS V15.00,2017-07-21 09:53:00,
2017-07-21 04:58:00,70.5,69.0,29.94,SW,214,0.0,1.0,95,0.02,,---,0.16,VWS V15.00,2017-07-21 09:58:00,
2017-07-21 05:03:00,70.4,68.9,29.95,SW,215,0.0,0.0,95,0.01,,---,0.16,VWS V15.00,2017-07-21 10:03:00,
2017-07-21 05:08:00,70.4,68.9,29.94,SW,215,0.0,0.0,95,0.01,,---,0.16,VWS V15.00,2017-07-21 10:08:00,
2017-07-21 05:13:00,70.3,68.8,29.94,SW,215,0.0,0.0,95,0.01,,---,0.16,VWS V15.00,2017-07-21 10:13:00,
2017-07-21 05:18:00,70.3,68.8,29.94,SW,215,0.0,0.0,95,0.01,,---,0.16,VWS V15.00,2017-07-21 10:18:00,
2017-07-21 05:23:00,70.3,68.8,29.94,West,271,0.0,0.0,95,0.01,,---,0.16,VWS V15.00,2017-07-21 10:23:00,
2017-07-21 05:28:00,70.2,68.7,29.94,West,271,0.0,0.0,95,0.01,,---,0.16,VWS V15.00,2017-07-21 10:28:00,
2017-07-21 05:33:00,70.2,68.7,29.95,West,271,0.0,0.0,95,0.00,,---,0.16,VWS V15.00,2017-07-21 10:33:00,
2017-07-21 05:38:00,70.3,69.1,29.94,West,271,0.0,0.0,96,0.00,,---,0.16,VWS V15.00,2017-07-21 10:38:00,
2017-07-21 05:43:00,70.3,68.8,29.94,West,271,0.0,0.0,95,0.00,,---,0.16,VWS V15.00,2017-07-21 10:43:00,
2017-07-21 05:48:00,70.3,68.8,29.94,West,271,0.0,0.0,95,0.00,,---,0.16,VWS V15.00,2017-07-21 10:48:00,
2017-07-21 05:53:00,70.3,68.8,29.94,North,9,0.0,0.0,95,0.00,,---,0.16,VWS V15.00,2017-07-21 10:53:00,
2017-07-21 05:58:00,70.4,69.2,29.93,ENE,62,0.0,0.0,96,0.00,,---,0.16,VWS V15.00,2017-07-21 10:58:00,
2017-07-21 06:03:00,70.4,69.2,29.93,NE,48,2.0,4.0,96,0.00,,---,0.16,VWS V15.00,2017-07-21 11:03:00,
2017-07-21 06:08:00,70.5,69.3,29.92,NE,55,0.0,4.0,96,0.00,,---,0.16,VWS V15.00,2017-07-21 11:08:00,
2017-07-21 06:12:00,70.5,69.3,29.93,NNE,33,0.0,4.0,96,0.00,,---,0.16,VWS V15.00,2017-07-21 11:12:00,
2017-07-21 06:17:00,70.5,69.3,29.93,NNE,33,0.0,4.0,96,0.00,,---,0.16,VWS V15.00,2017-07-21 11:17:00,
2017-07-21 06:18:00,70.5,69.3,29.93,NNE,33,0.0,4.0,96,0.00,,---,0.16,VWS V15.00,2017-07-21 11:18:00,
2017-07-21 06:23:00,70.6,69.4,29.93,NNE,33,0.0,4.0,96,0.00,,---,0.16,VWS V15.00,2017-07-21 11:23:00,
2017-07-21 06:28:00,70.6,69.4,29.93,NNE,33,0.0,4.0,96,0.00,,---,0.16,VWS V15.00,2017-07-21 11:28:00,
2017-07-21 06:33:00,70.6,69.4,29.93,NE,38,0.0,0.0,96,0.00,,---,0.16,VWS V15.00,2017-07-21 11:33:00,
2017-07-21 06:38:00,70.7,69.5,29.93,ENE,63,0.0,0.0,96,0.00,,---,0.16,VWS V15.00,2017-07-21 11:38:00,
2017-07-21 06:43:00,70.7,69.5,29.93,NE,46,0.0,0.0,96,0.00,,---,0.16,VWS V15.00,2017-07-21 11:43:00,
2017-07-21 06:48:00,70.8,69.6,29.94,NE,46,0.0,0.0,96,0.00,,---,0.16,VWS V15.00,2017-07-21 11:48:00,
2017-07-21 06:53:00,70.9,69.7,29.94,NE,46,0.0,0.0,96,0.00,,---,0.16,VWS V15.00,2017-07-21 11:53:00,
2017-07-21 06:58:00,70.9,69.7,29.94,NE,46,0.0,0.0,96,0.00,,---,0.16,VWS V15.00,2017-07-21 11:58:00,
2017-07-21 07:03:00,71.0,69.8,29.94,NE,46,0.0,0.0,96,0.00,,---,0.16,VWS V15.00,2017-07-21 12:03:00,
2017-07-21 07:08:00,71.0,69.8,29.94,NE,48,0.0,0.0,96,0.00,,---,0.16,VWS V15.00,2017-07-21 12:08:00,
2017-07-21 07:13:00,71.1,69.9,29.93,NE,48,0.0,0.0,96,0.00,,---,0.16,VWS V15.00,2017-07-21 12:13:00,
2017-07-21 07:18:00,71.3,70.1,29.93,NE,48,0.0,0.0,96,0.00,,---,0.16,VWS V15.00,2017-07-21 12:18:00,
2017-07-21 07:23:00,71.4,70.2,29.93,SE,142,0.0,0.0,96,0.00,,---,0.16,VWS V15.00,2017-07-21 12:23:00,
2017-07-21 07:28:00,71.5,70.3,29.93,SE,142,0.0,0.0,96,0.00,,---,0.16,VWS V15.00,2017-07-21 12:28:00,
2017-07-21 07:33:00,71.7,70.5,29.93,SE,142,0.0,0.0,96,0.00,,---,0.16,VWS V15.00,2017-07-21 12:33:00,
2017-07-21 07:38:00,71.8,70.6,29.93,ESE,107,0.0,0.0,96,0.00,,---,0.16,VWS V15.00,2017-07-21 12:38:00,
2017-07-21 07:43:00,71.8,70.3,29.92,SE,137,0.0,0.0,95,0.00,,---,0.16,VWS V15.00,2017-07-21 12:43:00,
2017-07-21 07:48:00,71.9,70.4,29.92,SE,136,0.0,0.0,95,0.00,,---,0.16,VWS V15.00,2017-07-21 12:48:00,
2017-07-21 07:53:00,72.3,71.1,29.92,SSE,148,0.0,0.0,96,0.00,,---,0.16,VWS V15.00,2017-07-21 12:53:00,
2017-07-21 07:58:00,72.4,70.9,29.92,South,177,0.0,0.0,95,0.00,,---,0.16,VWS V15.00,2017-07-21 12:58:00,
2017-07-21 08:03:00,72.5,71.0,29.92,SE,136,0.0,0.0,95,0.00,,---,0.16,VWS V15.00,2017-07-21 13:03:00,
2017-07-21 08:08:00,72.7,71.2,29.92,SW,219,0.0,0.0,95,0.00,,---,0.16,VWS V15.00,2017-07-21 13:08:00,
2017-07-21 08:13:00,73.0,71.5,29.92,SSE,150,1.0,2.0,95,0.00,,---,0.16,VWS V15.00,2017-07-21 13:13:00,
2017-07-21 08:18:00,73.5,71.7,29.92,ESE,107,0.0,2.0,94,0.00,,---,0.16,VWS V15.00,2017-07-21 13:18:00,
2017-07-21 08:23:00,74.2,72.1,29.92,ESE,115,1.0,3.0,93,0.00,,---,0.16,VWS V15.00,2017-07-21 13:23:00,
2017-07-21 08:28:00,74.5,72.0,29.92,SE,132,1.0,3.0,92,0.00,,---,0.16,VWS V15.00,2017-07-21 13:28:00,
2017-07-21 08:33:00,75.4,72.9,29.93,SE,128,0.0,0.0,92,0.00,,---,0.16,VWS V15.00,2017-07-21 13:33:00,
2017-07-21 08:38:00,76.3,72.8,29.93,SE,134,0.0,0.0,89,0.00,,---,0.16,VWS V15.00,2017-07-21 13:38:00,
2017-07-21 08:43:00,76.5,73.0,29.93,SE,135,0.0,2.0,89,0.00,,---,0.16,VWS V15.00,2017-07-21 13:43:00,
2017-07-21 08:48:00,76.7,72.9,29.94,SE,124,0.0,2.0,88,0.00,,---,0.16,VWS V15.00,2017-07-21 13:48:00,
2017-07-21 08:53:00,76.8,72.3,29.94,East,101,0.0,2.0,86,0.00,,---,0.16,VWS V15.00,2017-07-21 13:53:00,
2017-07-21 08:58:00,76.8,71.9,29.94,East,97,0.0,2.0,85,0.00,,---,0.16,VWS V15.00,2017-07-21 13:58:00,
2017-07-21 09:03:00,77.0,72.5,29.94,East,99,0.0,0.0,86,0.00,,---,0.16,VWS V15.00,2017-07-21 14:03:00,
2017-07-21 09:08:00,77.3,72.8,29.94,South,171,0.0,0.0,86,0.00,,---,0.16,VWS V15.00,2017-07-21 14:08:00,
2017-07-21 09:13:00,77.1,72.6,29.94,SW,217,0.0,1.0,86,0.00,,---,0.16,VWS V15.00,2017-07-21 14:13:00,
2017-07-21 09:18:00,77.2,72.7,29.95,SW,217,0.0,1.0,86,0.00,,---,0.16,VWS V15.00,2017-07-21 14:18:00,
2017-07-21 09:23:00,77.9,73.7,29.95,WSW,240,0.0,1.0,87,0.00,,---,0.16,VWS V15.00,2017-07-21 14:23:00,
2017-07-21 09:28:00,79.2,74.7,29.95,WSW,242,0.0,1.0,86,0.00,,---,0.16,VWS V15.00,2017-07-21 14:28:00,
2017-07-21 09:33:00,79.3,72.6,29.95,WSW,243,0.0,0.0,80,0.00,,---,0.16,VWS V15.00,2017-07-21 14:33:00,
2017-07-21 09:38:00,79.6,74.0,29.94,WSW,242,0.0,0.0,83,0.00,,---,0.16,VWS V15.00,2017-07-21 14:38:00,
2017-07-21 09:43:00,80.8,74.1,29.94,WSW,242,0.0,0.0,80,0.00,,---,0.16,VWS V15.00,2017-07-21 14:43:00,
2017-07-21 09:48:00,80.6,73.1,29.94,SW,216,0.0,0.0,78,0.00,,---,0.16,VWS V15.00,2017-07-21 14:48:00,
2017-07-21 09:53:00,80.6,73.5,29.94,SSW,213,0.0,0.0,79,0.00,,---,0.16,VWS V15.00,2017-07-21 14:53:00,
2017-07-21 09:58:00,80.7,73.6,29.94,SSE,163,0.0,0.0,79,0.00,,---,0.16,VWS V15.00,2017-07-21 14:58:00,
2017-07-21 10:03:00,81.3,73.8,29.94,SW,219,0.0,1.0,78,0.00,,---,0.16,VWS V15.00,2017-07-21 15:03:00,
2017-07-21 10:08:00,81.4,73.5,29.94,West,267,0.0,1.0,77,0.00,,---,0.16,VWS V15.00,2017-07-21 15:08:00,
2017-07-21 10:13:00,81.1,73.2,29.94,SW,219,0.0,1.0,77,0.00,,---,0.16,VWS V15.00,2017-07-21 15:13:00,
2017-07-21 10:18:00,80.8,73.3,29.95,SW,229,0.0,1.0,78,0.00,,---,0.16,VWS V15.00,2017-07-21 15:18:00,
2017-07-21 10:23:00,80.2,72.3,29.95,SW,224,0.0,1.0,77,0.00,,---,0.16,VWS V15.00,2017-07-21 15:23:00,
2017-07-21 10:28:00,80.5,73.4,29.95,SW,225,0.0,1.0,79,0.00,,---,0.16,VWS V15.00,2017-07-21 15:28:00,
2017-07-21 10:33:00,80.7,73.2,29.95,SW,234,0.0,1.0,78,0.00,,---,0.16,VWS V15.00,2017-07-21 15:33:00,
2017-07-21 10:38:00,80.9,73.0,29.95,SE,131,1.0,1.0,77,0.00,,---,0.16,VWS V15.00,2017-07-21 15:38:00,
2017-07-21 10:43:00,81.2,73.3,29.96,WSW,240,0.0,1.0,77,0.00,,---,0.16,VWS V15.00,2017-07-21 15:43:00,
2017-07-21 10:48:00,81.5,71.6,29.96,WSW,239,0.0,1.0,72,0.00,,---,0.16,VWS V15.00,2017-07-21 15:48:00,
2017-07-21 10:53:00,81.7,71.4,29.96,WNW,284,0.0,1.0,71,0.00,,---,0.16,VWS V15.00,2017-07-21 15:53:00,
2017-07-21 10:58:00,82.7,72.3,29.96,SSW,193,0.0,1.0,71,0.00,,---,0.16,VWS V15.00,2017-07-21 15:58:00,
2017-07-21 11:03:00,83.4,73.4,29.96,SW,221,0.0,3.0,72,0.00,,---,0.16,VWS V15.00,2017-07-21 16:03:00,
2017-07-21 11:08:00,84.6,72.9,29.97,East,94,0.0,3.0,68,0.00,,---,0.16,VWS V15.00,2017-07-21 16:08:00,
2017-07-21 11:13:00,85.2,73.0,29.97,WNW,285,0.0,3.0,67,0.00,,---,0.16,VWS V15.00,2017-07-21 16:13:00,
2017-07-21 11:18:00,84.6,71.6,29.96,SE,146,0.0,3.0,65,0.00,,---,0.16,VWS V15.00,2017-07-21 16:18:00,
2017-07-21 11:23:00,83.6,71.9,29.96,SE,124,0.0,3.0,68,0.00,,---,0.16,VWS V15.00,2017-07-21 16:23:00,
2017-07-21 11:28:00,83.2,71.6,29.96,ESE,103,4.0,4.0,68,0.00,,---,0.16,VWS V15.00,2017-07-21 16:28:00,
2017-07-21 11:33:00,83.3,72.9,29.96,ESE,112,0.0,2.0,71,0.00,,---,0.16,VWS V15.00,2017-07-21 16:33:00,
2017-07-21 11:38:00,84.3,73.0,29.96,SSE,155,0.0,2.0,69,0.00,,---,0.16,VWS V15.00,2017-07-21 16:38:00,
2017-07-21 11:43:00,84.6,72.4,29.96,ESE,123,1.0,2.0,67,0.00,,---,0.16,VWS V15.00,2017-07-21 16:43:00,
2017-07-21 11:48:00,84.1,72.4,29.95,SE,136,1.0,4.0,68,0.00,,---,0.16,VWS V15.00,2017-07-21 16:48:00,
2017-07-21 11:53:00,83.9,72.7,29.95,East,95,1.0,4.0,69,0.00,,---,0.16,VWS V15.00,2017-07-21 16:53:00,
2017-07-21 11:58:00,84.0,73.2,29.95,ESE,120,2.0,4.0,70,0.00,,---,0.16,VWS V15.00,2017-07-21 16:58:00,
2017-07-21 12:03:00,83.6,71.9,29.95,East,101,1.0,2.0,68,0.00,,---,0.16,VWS V15.00,2017-07-21 17:03:00,
2017-07-21 12:08:00,83.4,72.2,29.95,SSE,163,0.0,3.0,69,0.00,,---,0.16,VWS V15.00,2017-07-21 17:08:00,
2017-07-21 12:13:00,83.6,71.5,29.96,South,170,2.0,3.0,67,0.00,,---,0.16,VWS V15.00,2017-07-21 17:13:00,
2017-07-21 12:18:00,83.4,71.7,29.96,SE,142,0.0,3.0,68,0.00,,---,0.16,VWS V15.00,2017-07-21 17:18:00,
2017-07-21 12:23:00,83.2,72.4,29.95,SE,132,2.0,3.0,70,0.00,,---,0.16,VWS V15.00,2017-07-21 17:23:00,
2017-07-21 12:28:00,83.1,72.7,29.95,SE,126,0.0,3.0,71,0.00,,---,0.16,VWS V15.00,2017-07-21 17:28:00,
2017-07-21 12:33:00,83.5,71.8,29.95,SE,136,1.0,3.0,68,0.00,,---,0.16,VWS V15.00,2017-07-21 17:33:00,
2017-07-21 12:38:00,83.7,71.6,29.95,SSE,153,1.0,3.0,67,0.00,,---,0.16,VWS V15.00,2017-07-21 17:38:00,
2017-07-21 12:43:00,83.2,71.1,29.94,SE,142,1.0,3.0,67,0.00,,---,0.16,VWS V15.00,2017-07-21 17:43:00,
2017-07-21 12:48:00,83.2,72.4,29.94,SE,138,1.0,3.0,70,0.00,,---,0.16,VWS V15.00,2017-07-21 17:48:00,
2017-07-21 12:53:00,83.2,72.8,29.93,ESE,115,2.0,3.0,71,0.00,,---,0.16,VWS V15.00,2017-07-21 17:53:00,
2017-07-21 12:58:00,83.0,72.6,29.93,SE,124,2.0,3.0,71,0.00,,---,0.16,VWS V15.00,2017-07-21 17:58:00,
2017-07-21 13:03:00,82.8,71.2,29.93,SE,130,2.0,6.0,68,0.00,,---,0.16,VWS V15.00,2017-07-21 18:03:00,
2017-07-21 13:08:00,83.5,72.7,29.93,SE,134,0.0,6.0,70,0.00,,---,0.16,VWS V15.00,2017-07-21 18:08:00,
2017-07-21 13:13:00,84.1,72.8,29.93,SE,146,1.0,7.0,69,0.00,,---,0.16,VWS V15.00,2017-07-21 18:13:00,
2017-07-21 13:18:00,84.3,73.9,29.93,SSW,199,1.0,7.0,71,0.00,,---,0.16,VWS V15.00,2017-07-21 18:18:00,
2017-07-21 13:23:00,84.5,73.2,29.92,ESE,105,3.0,7.0,69,0.00,,---,0.16,VWS V15.00,2017-07-21 18:23:00,